Weather in Skomoroshki

Russia / Tula Oblast     54°04′48″N   36°56′36″E
temp.,
°C
wind,
m/s
gust,
m/s
humid.,
%
clouds,
%
prec.,
mm/h
press.,
hPa
HPBL,
m
20 january, thu
thu2000:00−10sw4119581 0.0 1015209
03:00−9ssw51196100 0.0 1014250
06:00−8ssw51196100 0.1 1011281
09:00−6ssw71395100 0.1 1010410
12:00−5ssw71594100 0.1 1009447
15:00−5ssw81692100 0.1 1007582
18:00−6s81692100 0.1 1005547
21:00−5s81693100 0.2 1004646
21 january, fri
fri2100:00−4s81592100 0.5 1004618
03:00−4s71395100 1.1 1003563
06:00−5s61296100 1.1 1000531
09:00−5s61196100 2.8 1000515
12:00−4s5996100 1.5 998464
15:00−3sw4891100 2.3 998587
18:00−7s5119274 0.0 999287
21:00−7s5139499 0.0 999378
22 january, sat
sat2200:00−5sse61294100 0.3 999470
03:00−4s51195100 0.8 999485
06:00−4ssw4995100 0.4 1001454
09:00−5s5995100 0.8 1004379
12:00−5s479498 0.2 1007395
15:00−5sse479599 0.4 1009429
18:00−7sse379672 0.2 1012195
21:00−12se229877 0.3 101530
23 january, sun
sun2300:00−14ese229879 0.1 101822
03:00−17ese1110090 0.1 102010
06:00−19ene11100100 0.0 10239
09:00−20ene11100100 0.1 10269
12:00−12ene229693 0.0 1028103
15:00−10nne23955 0.1 1029105
18:00−16ne2210073 0.0 103120
21:00−17nne3710093 0.0 103388
24 january, mon
mon2400:00−17ne38100100 0.0 1034101
03:00−17ne3910090 0.0 1033128
06:00−15nne41299100 0.0 1033185
09:00−14nne51497100 0.0 1033259
12:00−10ne51193100 0.0 1032301
15:00−8ne499494 0.1 1031324
18:00−15nne249983 0.0 103245
21:00−16nne3610097 0.1 103180